This demonstration page uses our WeatherBlox Daily Observations layout. Learn more.

Left ArrowRight Arrow

Hourly Observations for December 17, 2018

Temp ( °F °C ) Dew Point ( °F °C ) Humidity (%) Winds ( mph kmh ) Pressure ( in mb ) Visibility ( mi km ) Precip ( " mm )
12:57 am 00:57 Clear 32 0 27 -2.8 82 82 SW 7 11 30.28 1026 10 16 0.00 0.00
1:57 am 01:57 Clear 33 0.6 26 -3.3 75 75 Calm 30.27 1025 10 16 0.00 0.00
2:57 am 02:57 Clear 32 0 26 -3.3 79 79 SW 5 7 30.27 1025 10 16 0.00 0.00
3:57 am 03:57 Clear 30 -1.1 25 -3.9 82 82 SSW 6 9 30.26 1025 10 16 0.00 0.00
4:57 am 04:57 Clear 28 -2.2 25 -3.9 88 88 SSW 6 9 30.25 1024 10 16 0.00 0.00
5:57 am 05:57 Clear 28 -2.2 25 -3.9 88 88 SSW 9 15 30.24 1024 10 16 0.00 0.00
6:57 am 06:57 Clear 31 -0.6 26 -3.3 82 82 SSW 10 17 30.25 1024 10 16 0.00 0.00
7:57 am 07:57 Sunny 31 -0.6 26 -3.3 82 82 SSW 10 17 30.24 1024 10 16 0.00 0.00
8:57 am 08:57 Sunny 33 0.6 27 -2.8 78 78 SSW 12 19 30.24 1024 10 16 0.00 0.00
9:57 am 09:57 Sunny 36 2.2 29 -1.7 76 76 SSW 13 20 30.24 1024 10 16 0.00 0.00
10:57 am 10:57 Sunny 42 5.6 30 -1.1 62 62 SW 15 24 30.22 1023 10 16 0.00 0.00
11:57 am 11:57 Sunny 46 7.8 30 -1.1 54 54 SW 15 24 30.19 1022 10 16 0.00 0.00
12:57 pm 12:57 Sunny 48 8.9 32 0 54 54 SSW 17 28 30.15 1021 10 16 0.00 0.00
1:57 pm 13:57 Sunny 51 10.6 33 0.6 50 50 S 16 26 30.11 1020 10 16 0.00 0.00
2:57 pm 14:57 Sunny 50 10 34 1.1 54 54 S 16 26 30.08 1019 10 16 0.00 0.00
3:57 pm 15:57 Sunny 49 9.4 33 0.6 55 55 S 17 28 30.08 1019 10 16 0.00 0.00
4:57 pm 16:57 Sunny 44 6.7 32 0 63 63 S 12 19 30.09 1019 10 16 0.00 0.00
5:57 pm 17:57 Clear 40 4.4 30 -1.1 68 68 SSE 6 9 30.08 1019 10 16 0.00 0.00
6:57 pm 18:57 Clear 41 5 31 -0.6 67 67 SSW 15 24 30.07 1018 10 16 0.00 0.00
7:57 pm 19:57 Clear 37 2.8 30 -1.1 76 76 S 14 22 30.07 1018 10 16 0.00 0.00
8:57 pm 20:57 Clear 39 3.9 30 -1.1 70 70 S 17 28 30.05 1018 10 16 0.00 0.00
9:57 pm 21:57 Clear 38 3.3 30 -1.1 73 73 S 16 26 30.04 1017 10 16 0.00 0.00
10:57 pm 22:57 Clear 37 2.8 30 -1.1 76 76 S 16 26 30.03 1017 10 16 0.00 0.00
11:57 pm 23:57 Clear 37 2.8 29 -1.7 73 73 SSW 13 20 30.02 1017 10 16 0.00 0.00

Powered by AerisWeather